Weather History for KFSO - October, 2012

Change the Weather History Date:

Saturday, October 6, 2012

  Actual Average (KPBG) Record (KPBG)
Temperature  
Mean Temperature 53 °F 51 °F  
Max Temperature 58 °F 61 °F 85 °F (1990)
Min Temperature 46 °F 41 °F 24 °F (1965)
Degree Days  
Heating Degree Days 12 14  
Month to date heating degree days 79  
Since 1 July heating degree days 314  
Cooling Degree Days 0 0  
Month to date cooling degree days 0  
Year to date cooling degree days 345  
Growing Degree Days 3 (Base 50)    
Moisture  
Dew Point 47 °F    
Average Humidity 84    
Maximum Humidity 95    
Minimum Humidity 60    
Precipitation  
Precipitation 0.00 in - 0.75 in (1979)
Month to date precipitation  
Year to date precipitation  
Sea Level Pressure  
Sea Level Pressure 29.79 in    
Wind  
Wind Speed 2 mph (WSW)    
Max Wind Speed 9 mph    
Max Gust Speed 20 mph    
Visibility 8 miles    
Events Rain    
T = Trace of Precipitation, MM = Missing Value Source: NWS Daily Summary

Daily Weather History Graph

Daily Weather History Graph

Search for Another Location

Airport or City:

Trip Planner

Search our weather history database for the weather conditions in past years. The results will help you decide how hot, cold, wet, or windy it might be!

Date:

Astronomy

Oct. 06, 2012 Rise Set
Actual Time 6:57 AM EDT 6:22 PM EDT
Civil Twilight 6:27 AM EDT 6:52 PM EDT
Nautical Twilight 5:53 AM EDT 7:25 PM EDT
Astronomical Twilight 5:19 AM EDT 8:00 PM EDT
Moon 10:24 PM EDT (10/6) 1:01 PM EDT (10/6)
Length of Visible Light 12h 24m
Length of Day
11h 25m
Waning Gibbous, 65% of the Moon is Illuminated
Oct 6
Waning Gibbous
Oct 8
Last Quarter
Oct 15
New
Oct 21
First Quarter
Oct 29
Full

Hourly Weather History & Observations

Time (EDT) Temp. Dew Point Humidity Pressure Visibility Wind Dir Wind Speed Gust Speed Precip Events Conditions
12:15 AM 60.4 °F 52.7 °F 76% 29.84 in 7.0 mi SSW 3.5 mph - N/A Rain Rain
12:35 AM 58.6 °F 53.6 °F 83% 29.84 in 7.0 mi Calm Calm - N/A Rain Light Rain
12:55 AM 58.1 °F 54.5 °F 88% 29.84 in 10.0 mi SSE 4.6 mph - N/A Rain Light Rain
1:15 AM 57.4 °F 54.5 °F 90% 29.83 in 10.0 mi Calm Calm - N/A   Overcast
1:35 AM 58.1 °F 54.0 °F 86% 29.82 in 10.0 mi Calm Calm - N/A   Overcast
1:55 AM 58.1 °F 53.1 °F 83% 29.82 in 10.0 mi Calm Calm - N/A   Overcast
2:15 AM 58.1 °F 53.2 °F 84% 29.82 in 10.0 mi Calm Calm - N/A   Overcast
2:35 AM 57.6 °F 53.4 °F 86% 29.81 in 10.0 mi Calm Calm - N/A   Overcast
2:55 AM 57.4 °F 53.1 °F 85% 29.80 in 10.0 mi Calm Calm - N/A   Overcast
3:15 AM 56.8 °F 51.8 °F 83% 29.79 in 10.0 mi Calm Calm - N/A Rain Light Rain
3:35 AM 56.8 °F 51.4 °F 82% 29.78 in 10.0 mi Calm Calm - N/A   Overcast
3:55 AM 55.0 °F 52.0 °F 89% 29.78 in 10.0 mi Calm Calm - N/A   Light Drizzle
4:15 AM 55.0 °F 51.1 °F 86% 29.77 in 7.0 mi NW 3.5 mph - N/A Rain Rain
4:35 AM 54.5 °F 50.9 °F 88% 29.77 in 7.0 mi Calm Calm - N/A Rain Rain
4:55 AM 52.0 °F 48.9 °F 89% 29.77 in 4.0 mi Calm Calm - N/A Rain Rain
5:15 AM 51.8 °F 49.3 °F 91% 29.77 in 5.0 mi NW 3.5 mph - N/A Rain Heavy Rain
5:35 AM 51.8 °F 49.6 °F 92% 29.78 in 7.0 mi Calm Calm - N/A Rain Heavy Rain
5:55 AM 51.8 °F 50.0 °F 94% 29.76 in 3.0 mi Calm Calm - N/A Rain Light Rain
6:15 AM 51.8 °F 50.0 °F 94% 29.74 in 5.0 mi Calm Calm - N/A Rain Light Rain
6:35 AM 51.8 °F 50.0 °F 94% 29.77 in 7.0 mi Calm Calm - N/A   Drizzle
6:55 AM 51.8 °F 50.2 °F 94% 29.73 in 7.0 mi ENE 4.6 mph - N/A Rain Rain
7:15 AM 51.8 °F 50.2 °F 94% 29.75 in 7.0 mi WNW 3.5 mph - N/A Rain Light Rain
7:35 AM 51.8 °F 50.2 °F 94% 29.74 in 10.0 mi Calm Calm - N/A Rain Light Rain
7:55 AM 49.5 °F 47.7 °F 94% 29.73 in 2.0 mi NNW 4.6 mph - N/A Rain Rain
8:15 AM 49.3 °F 47.7 °F 94% 29.73 in 5.0 mi Calm Calm - N/A Rain Rain
8:35 AM 49.3 °F 47.7 °F 94% 29.73 in 7.0 mi NNW 3.5 mph - N/A   Drizzle
8:55 AM 49.3 °F 47.8 °F 95% 29.75 in 4.0 mi WNW 5.8 mph - N/A Rain Rain
9:15 AM 47.7 °F 46.0 °F 94% 29.75 in 2.5 mi WNW 4.6 mph - N/A Rain Rain
9:35 AM 46.8 °F 45.5 °F 95% 29.77 in 1.8 mi WNW 6.9 mph - N/A Rain Heavy Rain
10:15 AM 46.8 °F 45.3 °F 95% 29.75 in 4.0 mi NNW 4.6 mph - N/A Rain Rain
10:35 AM 46.8 °F 45.5 °F 95% 29.76 in 2.0 mi Calm Calm - N/A Rain Heavy Rain
11:15 AM 46.8 °F 45.5 °F 95% 29.77 in 4.0 mi Calm Calm - N/A Rain Rain
11:35 AM 46.8 °F 45.3 °F 95% 29.76 in 7.0 mi Calm Calm - N/A Rain Light Rain
11:55 AM 46.8 °F 45.1 °F 94% 29.77 in 7.0 mi Calm Calm - N/A Rain Rain
12:15 PM 46.8 °F 45.1 °F 94% 29.77 in 5.0 mi Calm Calm - N/A Rain Rain
12:35 PM 46.8 °F 45.1 °F 94% 29.77 in 10.0 mi Calm Calm - N/A   Light Drizzle
12:55 PM 46.8 °F 44.8 °F 93% 29.76 in 10.0 mi Calm Calm - N/A   Overcast
1:15 PM 46.8 °F 44.8 °F 93% 29.76 in 10.0 mi Calm Calm - N/A   Overcast
1:35 PM 46.8 °F 45.0 °F 93% 29.76 in 4.0 mi NNW 3.5 mph - N/A Rain Light Rain
1:55 PM 47.5 °F 45.7 °F 93% 29.76 in 10.0 mi Calm Calm - N/A   Light Drizzle
2:15 PM 47.3 °F 45.5 °F 93% 29.77 in 7.0 mi Calm Calm - N/A Rain Rain
2:35 PM 48.0 °F 46.2 °F 93% 29.77 in 10.0 mi Calm Calm - N/A   Light Drizzle
3:15 PM 51.3 °F 49.1 °F 92% 29.77 in 10.0 mi Calm Calm - N/A   Overcast
3:35 PM 51.8 °F 49.5 °F 92% 29.77 in 10.0 mi SSE 3.5 mph - N/A   Overcast
3:55 PM 51.8 °F 49.1 °F 90% 29.76 in 10.0 mi SE 5.8 mph - N/A   Overcast
4:15 PM 51.8 °F 48.2 °F 88% 29.77 in 10.0 mi South 3.5 mph - N/A   Mostly Cloudy
4:35 PM 51.8 °F 48.6 °F 89% 29.77 in 10.0 mi SSE 4.6 mph - N/A   Mostly Cloudy
4:55 PM 54.0 °F 48.9 °F 83% 29.77 in 10.0 mi SSE 3.5 mph - N/A   Scattered Clouds
5:15 PM 54.1 °F 48.7 °F 82% 29.77 in 10.0 mi South 3.5 mph - N/A   Clear
5:35 PM 51.8 °F 47.3 °F 85% 29.77 in 10.0 mi South 4.6 mph - N/A   Scattered Clouds
5:55 PM 52.3 °F 46.8 °F 81% 29.78 in 10.0 mi SSE 4.6 mph - N/A   Mostly Cloudy
6:15 PM 51.8 °F 47.7 °F 86% 29.79 in 10.0 mi Calm Calm - N/A   Scattered Clouds
6:35 PM 51.8 °F 45.9 °F 80% 29.79 in 10.0 mi SSW 3.5 mph - N/A   Overcast
6:55 PM 51.8 °F 44.2 °F 75% 29.79 in 10.0 mi SSW 4.6 mph - N/A   Overcast
7:15 PM 51.8 °F 44.4 °F 76% 29.80 in 10.0 mi SSW 5.8 mph - N/A   Scattered Clouds
7:35 PM 50.7 °F 43.9 °F 77% 29.81 in 10.0 mi SW 4.6 mph - N/A   Clear
7:55 PM 51.8 °F 43.9 °F 74% 29.82 in 10.0 mi WSW 4.6 mph - N/A   Scattered Clouds
8:15 PM 51.8 °F 42.3 °F 70% 29.83 in 10.0 mi WSW 4.6 mph - N/A   Overcast
8:35 PM 51.8 °F 39.2 °F 62% 29.83 in 10.0 mi West 8.1 mph 19.6 mph N/A   Overcast
8:55 PM 51.8 °F 39.0 °F 62% 29.84 in 10.0 mi WSW 8.1 mph 19.6 mph N/A   Mostly Cloudy
9:15 PM 51.8 °F 38.3 °F 60% 29.85 in 10.0 mi WSW 8.1 mph 16.1 mph N/A   Scattered Clouds
9:35 PM 51.4 °F 37.8 °F 60% 29.85 in 10.0 mi West 9.2 mph 17.3 mph N/A   Clear
9:55 PM 51.8 °F 38.7 °F 61% 29.87 in 10.0 mi WSW 6.9 mph - N/A   Scattered Clouds
10:15 PM 49.3 °F 37.0 °F 63% 29.88 in 10.0 mi WSW 6.9 mph - N/A   Scattered Clouds
10:35 PM 49.1 °F 36.9 °F 63% 29.88 in 10.0 mi SW 8.1 mph - N/A   Clear
10:55 PM 48.4 °F 36.1 °F 63% 29.89 in 10.0 mi WSW 6.9 mph - N/A   Clear
11:15 PM 47.7 °F 35.8 °F 63% 29.90 in 10.0 mi WSW 5.8 mph - N/A   Clear
11:35 PM 47.1 °F 35.6 °F 64% 29.90 in 10.0 mi WSW 5.8 mph - N/A   Clear
11:55 PM 47.3 °F 35.4 °F 63% 29.90 in 10.0 mi WSW 5.8 mph - N/A   Clear